Cando, ND

8:10 AM CDT on August 23, 2017 (GMT -0500)
Cando

Weather History for K9D7 - January, 2013

Change the Weather History Date:

Monday, January 14, 2013

  Actual Average (KDVL) Record (KDVL)
Temperature  
Mean Temperature -8 °F -  
Max Temperature 0 °F 19 °F 39 °F (1987)
Min Temperature -16 °F 0 °F -30 °F (1972)
Degree Days  
Heating Degree Days 73    
Moisture  
Dew Point -10 °F    
Average Humidity 80    
Maximum Humidity 92    
Minimum Humidity 70    
Precipitation  
Precipitation 0.00 in - - ()
Sea Level Pressure  
Sea Level Pressure 30.14 in    
Wind  
Wind Speed 8 mph (WSW)    
Max Wind Speed 15 mph    
Max Gust Speed -    
Visibility 10 miles    
Events Snow    
Averages and records for this station are not official NWS values.
T = Trace of Precipitation, MM = Missing Value Source: NWS Daily Summary

Daily Weather History Graph

Daily Weather History Graph

Search for Another Location

Airport or City:

Trip Planner

Search our weather history database for the weather conditions in past years. The results will help you decide how hot, cold, wet, or windy it might be!

Date:

Astronomy

Jan. 14, 2013 Rise Set
Actual Time 8:24 AM CST 5:08 PM CST
Civil Twilight 7:48 AM CST 5:44 PM CST
Nautical Twilight 7:09 AM CST 6:23 PM CST
Astronomical Twilight 6:31 AM CST 7:00 PM CST
Moon 9:38 AM CST (1/14) 9:18 PM CST (1/14)
Length of Visible Light 9h 55m
Length of Day
8h 44m
Waxing Crescent, 11% of the Moon is Illuminated
Jan 14
Waxing Crescent
Jan 18
First Quarter
Jan 26
Full
Feb 3
Last Quarter
Feb 10
New

Hourly Weather History & Observations

Time (CST) Temp. Windchill Dew Point Humidity Pressure Visibility Wind Dir Wind Speed Gust Speed Precip Events Conditions
12:15 AM -2.2 °F -22.2 °F -7.6 °F 78% 30.15 in 9.0 mi West 15.0 mph - N/A   Overcast
12:35 AM -0.4 °F -19.2 °F -5.8 °F 78% 30.15 in 9.0 mi West 13.8 mph - N/A Snow Light Snow
12:55 AM -0.4 °F -17.6 °F -5.8 °F 78% 30.15 in 10.0 mi West 11.5 mph - N/A Snow Light Snow
1:15 AM -0.4 °F -17.6 °F -5.8 °F 78% 30.15 in 10.0 mi West 11.5 mph - N/A   Overcast
1:35 AM -0.4 °F -19.2 °F -5.8 °F 78% 30.15 in 10.0 mi West 13.8 mph - N/A   Overcast
1:55 AM -0.4 °F -18.4 °F -5.8 °F 78% 30.15 in 10.0 mi West 12.7 mph - N/A   Overcast
2:15 AM -0.4 °F -19.2 °F -5.8 °F 78% 30.15 in 10.0 mi West 13.8 mph - N/A   Overcast
2:35 AM -0.4 °F -17.6 °F -5.8 °F 78% 30.16 in 10.0 mi WNW 11.5 mph - N/A   Overcast
2:55 AM -2.2 °F -18.0 °F -7.6 °F 78% 30.16 in 10.0 mi West 9.2 mph - N/A   Overcast
3:35 AM -5.8 °F -23.4 °F -11.2 °F 77% 30.17 in 10.0 mi West 10.4 mph - N/A   Mostly Cloudy
4:15 AM -9.4 °F -25.6 °F -14.8 °F 77% 30.17 in 10.0 mi West 8.1 mph - N/A   Clear
4:35 AM -9.4 °F -26.8 °F -16.6 °F 71% 30.16 in 10.0 mi West 9.2 mph - N/A   Clear
4:55 AM -9.4 °F -24.3 °F -14.8 °F 77% 30.16 in 10.0 mi West 6.9 mph - N/A   Clear
5:15 AM -11.2 °F -24.8 °F -16.6 °F 77% 30.16 in 10.0 mi WSW 5.8 mph - N/A   Partly Cloudy
5:35 AM -13.0 °F -28.6 °F -18.4 °F 77% 30.15 in 10.0 mi WSW 6.9 mph - N/A   Mostly Cloudy
5:55 AM -13.0 °F -28.6 °F -18.4 °F 77% 30.16 in 10.0 mi WNW 6.9 mph - N/A   Partly Cloudy
6:15 AM -11.2 °F -20.6 °F -16.6 °F 77% 30.16 in 10.0 mi West 3.5 mph - N/A   Clear
6:35 AM -11.2 °F -27.8 °F -16.6 °F 77% 30.16 in 10.0 mi West 8.1 mph - N/A   Clear
6:55 AM -13.0 °F -22.7 °F -20.2 °F 70% 30.17 in 10.0 mi West 3.5 mph - N/A   Clear
7:15 AM -14.8 °F -24.8 °F -20.2 °F 77% 30.17 in 10.0 mi NNW 3.5 mph - N/A   Clear
7:55 AM -13.0 °F - -20.2 °F 70% 30.18 in 10.0 mi Calm Calm - N/A   Clear
8:15 AM -13.0 °F - -18.4 °F 77% 30.18 in 9.0 mi Calm Calm - N/A   Partly Cloudy
8:35 AM -16.6 °F - -22.0 °F 76% 30.19 in 8.0 mi Calm Calm - N/A   Mostly Cloudy
8:55 AM -16.6 °F - -22.0 °F 76% 30.19 in 10.0 mi Calm Calm - N/A   Overcast
9:15 AM -14.8 °F - -20.2 °F 77% 30.19 in 9.0 mi Calm Calm - N/A   Mostly Cloudy
9:35 AM -14.8 °F -27.2 °F -22.0 °F 70% 30.19 in 7.0 mi SSE 4.6 mph - N/A   Overcast
9:55 AM -16.6 °F -32.9 °F -22.0 °F 76% 30.19 in 8.0 mi South 6.9 mph - N/A   Overcast
10:15 AM -13.0 °F -22.7 °F -20.2 °F 70% 30.19 in 10.0 mi South 3.5 mph - N/A   Overcast
10:35 AM -13.0 °F -22.7 °F -18.4 °F 77% 30.19 in 9.0 mi SSW 3.5 mph - N/A   Overcast
10:55 AM -11.2 °F -23.0 °F -16.6 °F 77% 30.19 in 9.0 mi SSW 4.6 mph - N/A   Overcast
11:15 AM -9.4 °F -18.6 °F -13.0 °F 84% 30.18 in 10.0 mi SSW 3.5 mph - N/A   Overcast
11:35 AM -5.8 °F -14.5 °F -11.2 °F 77% 30.18 in 10.0 mi SW 3.5 mph - N/A   Overcast
11:55 AM -2.2 °F -15.6 °F -7.6 °F 78% 30.17 in 10.0 mi WSW 6.9 mph - N/A   Mostly Cloudy
12:15 PM -2.2 °F -12.5 °F -7.6 °F 78% 30.17 in 10.0 mi West 4.6 mph - N/A   Overcast
12:35 PM -2.2 °F -18.0 °F -5.8 °F 85% 30.16 in 10.0 mi West 9.2 mph - N/A   Overcast
12:55 PM -0.4 °F -14.7 °F -5.8 °F 78% 30.15 in 7.0 mi WSW 8.1 mph - N/A   Overcast
1:15 PM -0.4 °F -14.7 °F -4.0 °F 85% 30.15 in 10.0 mi West 8.1 mph - N/A   Overcast
1:35 PM -0.4 °F -15.7 °F -4.0 °F 85% 30.14 in 10.0 mi West 9.2 mph - N/A   Overcast
1:55 PM -0.4 °F -14.7 °F -4.0 °F 85% 30.13 in 10.0 mi WSW 8.1 mph - N/A   Overcast
2:15 PM -0.4 °F -13.4 °F -4.0 °F 85% 30.13 in 10.0 mi West 6.9 mph - N/A   Mostly Cloudy
2:35 PM -0.4 °F -15.7 °F -4.0 °F 85% 30.14 in 10.0 mi West 9.2 mph - N/A   Scattered Clouds
2:55 PM -0.4 °F -15.7 °F -4.0 °F 85% 30.14 in 10.0 mi West 9.2 mph - N/A   Scattered Clouds
3:15 PM -0.4 °F -13.4 °F -4.0 °F 85% 30.14 in 10.0 mi SW 6.9 mph - N/A   Overcast
3:35 PM -0.4 °F -15.7 °F -4.0 °F 85% 30.14 in 10.0 mi WSW 9.2 mph - N/A   Overcast
3:55 PM -0.4 °F -13.4 °F -4.0 °F 85% 30.14 in 10.0 mi WSW 6.9 mph - N/A   Overcast
4:15 PM -0.4 °F -13.4 °F -4.0 °F 85% 30.13 in 10.0 mi WSW 6.9 mph - N/A   Overcast
4:35 PM -0.4 °F -12.0 °F -4.0 °F 85% 30.13 in 10.0 mi West 5.8 mph - N/A   Overcast
4:55 PM -0.4 °F -10.4 °F -5.8 °F 78% 30.13 in 10.0 mi WSW 4.6 mph - N/A   Overcast
5:15 PM -2.2 °F -14.2 °F -5.8 °F 85% 30.12 in 10.0 mi WSW 5.8 mph - N/A   Overcast
5:35 PM -2.2 °F -12.5 °F -7.6 °F 78% 30.12 in 10.0 mi SW 4.6 mph - N/A   Overcast
5:55 PM -2.2 °F -12.5 °F -7.6 °F 78% 30.12 in 10.0 mi SW 4.6 mph - N/A   Overcast
6:15 PM -2.2 °F -10.4 °F -7.6 °F 78% 30.11 in 10.0 mi South 3.5 mph - N/A   Overcast
6:35 PM -4.0 °F -12.4 °F -7.6 °F 85% 30.11 in 10.0 mi South 3.5 mph - N/A   Overcast
6:55 PM -2.2 °F - -7.6 °F 78% 30.10 in 10.0 mi Calm Calm - N/A   Overcast
7:15 PM -2.2 °F - -7.6 °F 78% 30.10 in 10.0 mi Calm Calm - N/A   Overcast
7:35 PM -2.2 °F - -7.6 °F 78% 30.10 in 10.0 mi Calm Calm - N/A   Overcast
7:55 PM -2.2 °F -10.4 °F -7.6 °F 78% 30.10 in 10.0 mi WNW 3.5 mph - N/A   Overcast
8:15 PM -2.2 °F - -7.6 °F 78% 30.09 in 10.0 mi Calm Calm - N/A   Overcast
8:35 PM -2.2 °F - -5.8 °F 85% 30.09 in 10.0 mi Calm Calm - N/A   Overcast
8:55 PM -2.2 °F - -5.8 °F 85% 30.09 in 10.0 mi Calm Calm - N/A   Overcast
9:15 PM -2.2 °F -10.4 °F -5.8 °F 85% 30.08 in 10.0 mi ESE 3.5 mph - N/A   Overcast
9:35 PM -2.2 °F -10.4 °F -5.8 °F 85% 30.07 in 10.0 mi ESE 3.5 mph - N/A   Overcast
9:55 PM -2.2 °F -12.5 °F -5.8 °F 85% 30.06 in 10.0 mi SE 4.6 mph - N/A   Overcast
10:15 PM -2.2 °F -12.5 °F -5.8 °F 85% 30.05 in 10.0 mi SE 4.6 mph - N/A   Overcast
10:35 PM -2.2 °F -10.4 °F -7.6 °F 78% 30.05 in 10.0 mi SE 3.5 mph - N/A   Overcast
10:55 PM -2.2 °F -10.4 °F -5.8 °F 85% 30.05 in 10.0 mi ESE 3.5 mph - N/A   Overcast
11:15 PM -0.4 °F -8.3 °F -4.0 °F 85% 30.05 in 10.0 mi SSE 3.5 mph - N/A   Overcast
11:35 PM -0.4 °F -8.3 °F -4.0 °F 85% 30.04 in 10.0 mi South 3.5 mph - N/A   Overcast
11:55 PM -0.4 °F -10.4 °F -2.2 °F 92% 30.03 in 10.0 mi South 4.6 mph - N/A   Overcast